This is the latest recevied weather packets stored in our database for station/object N3TTT-13. If no packets are shown the sender has not sent any weather packets the latest 10 day(s).
| Time | Temp. | Humidity | Pressure | Rain* | Wind** | Luminosity | Snow |
|---|---|---|---|---|---|---|---|
| 1778024638 | 23.89° C | 52% | 1010.8 hPa | 0 mm | - | 4 W/m² | - |
| 1778024335 | 23.89° C | 52% | 1010.8 hPa | 0 mm | - | 7 W/m² | - |
| 1778024033 | 24.44° C | 51% | 1010.7 hPa | 0 mm | - | 11 W/m² | - |
| 1778023730 | 23.89° C | 52% | 1010.8 hPa | 0 mm | - | 14 W/m² | - |
| 1778023428 | 23.89° C | 50% | 1010.8 hPa | 0 mm | - | 17 W/m² | - |
| 1778023124 | 23.89° C | 51% | 1010.7 hPa | 0 mm | - | 21 W/m² | - |
| 1778022822 | 24.44° C | 50% | 1010.7 hPa | 0 mm | - | 25 W/m² | - |
| 1778022520 | 24.44° C | 49% | 1010.8 hPa | 0 mm | - | 24 W/m² | - |
| 1778022216 | 25° C | 47% | 1010.7 hPa | 0 mm | - | 24 W/m² | - |
| 1778021913 | 25° C | 47% | 1010.9 hPa | 0 mm | - | 24 W/m² | - |
| 1778021611 | 25° C | 47% | 1010.7 hPa | 0 mm | - | 23 W/m² | - |
| 1778021305 | 25° C | 47% | 1010.7 hPa | 0 mm | - | 23 W/m² | - |
| 1778021004 | 25° C | 46% | 1010.8 hPa | 0 mm | - | 27 W/m² | - |
| 1778020700 | 25.56° C | 46% | 1010.8 hPa | 0 mm | - | 34 W/m² | - |
| 1778020398 | 25.56° C | 45% | 1011 hPa | 0 mm | - | 38 W/m² | - |
| 1778020093 | 25.56° C | 45% | 1010.6 hPa | 0 mm | - | 39 W/m² | - |
| 1778019790 | 25.56° C | 44% | 1010.9 hPa | 0 mm | - | 38 W/m² | - |
| 1778019487 | 25.56° C | 45% | 1010.9 hPa | 0 mm | - | 32 W/m² | - |
| 1778019184 | 26.11° C | 44% | 1010.7 hPa | 0 mm | - | 33 W/m² | - |
| 1778018880 | 26.11° C | 44% | 1010.8 hPa | 0 mm | - | 43 W/m² | - |
| 1778018578 | 26.67° C | 44% | 1010.3 hPa | 0 mm | - | 53 W/m² | - |
| 1778018276 | 26.67° C | 44% | 1010.7 hPa | 0 mm | - | 89 W/m² | - |
| 1778017973 | 26.11° C | 45% | 1010.5 hPa | 0 mm | - | 104 W/m² | - |
| 1778017671 | 26.11° C | 44% | 1010.6 hPa | 0 mm | - | 72 W/m² | - |
| 1778017368 | 26.11° C | 45% | 1010.6 hPa | 0 mm | - | 55 W/m² | - |
* Rain latest hour (hover to see other rain measurements)
** Current wind speed in m/s (hover to see current wind gust speed)